Content
SEND FEEDBACK

Daily
Averages
Monthly
Summary
Ukraine

DNIPROPETROVS'K, UKRAINE


Home > Europe > Ukraine
Elevation: 466 feet     Latitude: 48 22N     Longitude: 035 05E

WEATHER
 
SELECT A DAY
Number of Records: 228,663;   Date Range: 2/14/99 - 10/24/14
 
SHARE

PRINT THIS DATA

[ ← Previous Day ]
WEATHER ALMANAC - FEBRUARY 13, 2013
[ Next Day → ]
[ °C ]   °F
Weather ElementAverageHighLow
Temperature34.2 °F37.4 °F (1:00 pm)32 °F (12:30 am)
Dewpoint33.5 °F36 °F (2:00 pm)32 °F (12:30 am)
Humidity97.1 %100 % (12:30 am)93 % (11:00 am)
Barometer30.29 in30.36 in (11:00 pm)30.21 in (12:30 am)
Wind Speed4.2 mph8.9 mph (8:00 pm)
Weather ElementAverage
Visibility1.3 mi
Wind DirectionENE (51.5 °)

Weather ElementTotal
Precipitation---
Heating Degree Days30.3 (Base 65)
Averaged from 55 records on February 13, 2013
WEATHER CONDITIONS BREAKOUT
WIND DIRECTION BREAKOUT
WEATHER BY HOUR - FEBRUARY 13, 2013
[ °C ]   °F
Local TimeTemperatureDewpointHumidityBarometerVisibilityWind DirectionWind SpeedGust SpeedPrecipitationEventsConditions
12:30 AM32.0 °F32.0 °F100 %30.21 inENE (60°)4.5 mphSnowSnow
1:00 AM32.0 °F32.0 °F100 %30.21 inENE (70°)2.2 mphFog-SnowSnow
1:30 AM32.0 °F32.0 °F100 %30.21 in0.5 miENE (60°)2.2 mphSnowSnow
2:00 AM33.0 °F33.0 °F97 %30.26 in0.0 miENE (60°)4.5 mphSnowSnow
2:00 AM32.0 °F32.0 °F100 %30.21 in0.5 miENE (60°)4.5 mphSnowSnow
2:30 AM32.0 °F32.0 °F100 %30.21 in0.4 miNE (50°)4.5 mphSnowSnow
3:00 AM32.0 °F32.0 °F100 %30.24 in0.2 miNE (50°)2.2 mphFog-SnowSnow
3:30 AM32.0 °F32.0 °F100 %30.24 in0.2 miNE (50°)2.2 mphFog-SnowSnow
4:00 AM32.0 °F32.0 °F100 %30.24 in0.1 miNE (50°)2.2 mphFogFog
4:30 AM32.0 °F32.0 °F100 %30.24 in0.1 miNE (50°)4.5 mphFogFog
5:00 AM32.0 °F32.0 °F100 %30.28 in0.0 miNE (50°)4.5 mphFogHeavy Fog
5:00 AM32.0 °F32.0 °F100 %30.24 in0.1 miNE (50°)4.5 mphFogFog
5:30 AM32.0 °F32.0 °F100 %30.24 in0.1 miNE (50°)4.5 mphFogFog
6:00 AM32.0 °F32.0 °F100 %30.24 in0.1 miNE (50°)4.5 mphFogFog
6:30 AM32.0 °F32.0 °F100 %30.24 in0.1 miNE (50°)2.2 mphFog-SnowLight Snow
7:00 AM32.0 °F32.0 °F100 %30.27 in0.2 miENE (70°)2.2 mphFogFog
7:30 AM32.0 °F32.0 °F100 %30.27 in0.1 miCalmFogFog
8:00 AM33.0 °F33.0 °F97 %30.30 in0.0 miENE (70°)2.2 mphSnowLight Snow
8:00 AM32.0 °F32.0 °F100 %30.27 in0.2 miCalmFog-SnowLight Snow
8:30 AM33.8 °F33.8 °F100 %30.27 in0.2 miEast (80°)4.5 mphFog-SnowLight Snow
9:00 AM33.8 °F33.8 °F100 %30.27 in0.2 miEast (90°)4.5 mphFog-SnowLight Snow
9:30 AM33.8 °F33.8 °F100 %30.27 in1.3 miEast (100°)4.5 mphSnowLight Snow
10:00 AM33.8 °F33.8 °F100 %30.27 in1.1 miVariable4.5 mphOvercast
10:30 AM33.8 °F33.8 °F100 %30.30 in1.3 miCalmLight Drizzle
11:00 AM35.0 °F34.0 °F93 %30.33 in2.0 miENE (70°)4.5 mphRainLight Drizzle
11:00 AM35.6 °F33.8 °F93 %30.30 in1.6 miENE (70°)4.5 mphLight Drizzle
11:30 AM35.6 °F33.8 °F93 %30.30 inEast (90°)4.5 mphSnowLight Snow
12:00 PM35.6 °F35.6 °F100 %30.30 inCalmRainLight Rain
12:30 PM35.6 °F35.6 °F100 %30.30 in3.1 miCalmOvercast
1:00 PM37.4 °F35.6 °F93 %30.30 in6.2 miCalmOvercast
1:30 PM37.4 °F35.6 °F93 %30.30 in6.2 miENE (60°)2.2 mphOvercast
2:00 PM37.0 °F36.0 °F93 %30.33 in3.0 miNE (50°)4.5 mphRainLight Rain
2:00 PM37.4 °F35.6 °F93 %30.30 in3.1 miNE (50°)4.5 mphRainLight Rain
2:30 PM37.4 °F35.6 °F93 %30.30 inNNE (20°)4.5 mphRainLight Rain
3:00 PM37.4 °F35.6 °F93 %30.30 inNNE (20°)4.5 mphRainLight Rain
3:30 PM37.4 °F35.6 °F93 %30.30 inNorth (10°)4.5 mphOvercast
4:00 PM35.6 °F33.8 °F93 %30.30 in1.7 miNNE (20°)6.7 mphOvercast
4:30 PM35.6 °F33.8 °F93 %30.30 in1.6 miNNE (20°)6.7 mphOvercast
5:00 PM35.0 °F35.0 °F97 %30.34 in2.0 miNorth (10°)4.5 mphMist
5:00 PM35.6 °F33.8 °F93 %30.30 in1.8 miNorth (10°)4.5 mphOvercast
5:30 PM35.6 °F33.8 °F93 %30.30 inNE (50°)4.5 mphOvercast
6:00 PM35.6 °F35.6 °F100 %30.30 in2.8 miNE (50°)6.7 mphOvercast
6:30 PM35.6 °F35.6 °F100 %30.30 inENE (60°)6.7 mphOvercast
7:00 PM35.6 °F33.8 °F93 %30.30 inEast (80°)6.7 mphOvercast
7:30 PM35.6 °F33.8 °F93 %30.30 in1.8 miEast (90°)6.7 mphOvercast
8:00 PM35.0 °F34.0 °F94 %30.35 in2.0 miEast (90°)8.9 mphMist
8:00 PM35.6 °F33.8 °F93 %30.33 inEast (90°)8.9 mphOvercast
8:30 PM35.6 °F33.8 °F93 %30.33 in1.9 miEast (80°)4.5 mphOvercast
9:00 PM33.8 °F33.8 °F100 %30.33 in2.5 miENE (60°)4.5 mphOvercast
9:30 PM33.8 °F33.8 °F100 %30.33 inENE (70°)6.7 mphOvercast
10:00 PM33.8 °F32.0 °F93 %30.33 inENE (60°)6.7 mphOvercast
10:30 PM33.8 °F32.0 °F93 %30.33 in1.3 miENE (70°)6.7 mphOvercast
11:00 PM34.0 °F33.0 °F97 %30.36 in1.0 miEast (90°)4.5 mphMist
11:00 PM33.8 °F33.8 °F100 %30.33 in1.0 miEast (90°)4.5 mphOvercast
11:30 PM33.8 °F33.8 °F100 %30.33 in1.0 miEast (80°)4.5 mphOvercast
Hourly data recorded from UKDD, located miles away from Dnipropetrovs'k, Ukraine







STORIES FROM OUR PARTNERS